Location: LDNL
(36.4545°S, 141.6685°E)
Time: 23:30:58
(UTC+11:00)

Altair - Visible Passes

Search period start: 30 January 2023 00:00
Search period end: 09 February 2023 00:00
Orbit: 1501 x 1683 km, 47.2° (Epoch: 29 January)

Date Brightness Start Highest point End Pass type
(mag) Time Alt. Az. Time Alt. Az. Time Alt. Az.
05 Feb 9.0 06:13:41 10° N 06:21:53 31° NE 06:29:51 10° ESE visible
06 Feb 9.0 05:48:54 10° N 05:56:47 28° NE 06:04:28 10° ESE visible
07 Feb 9.1 05:24:09 10° N 05:31:42 25° NE 05:39:02 10° ESE visible
08 Feb 9.1 04:59:29 10° N 05:06:35 22° NE 05:13:32 10° E visible
